Regional Weather Roundup
Issued by NWS

Home | Current Version | Previous Version | Graphics & Text | Print | Product List | Glossary On
Versions: 1 2 3 4 5 6 7 8 9 10 11 12 13 14 15 16 17 18 19 20 21 22 23 24 25 26 27 28
000
ASUS45 KTFX 232110
RWRMT
MONTANA REGIONAL WEATHER ROUNDUP
NATIONAL WEATHER SERVICE GREAT FALLS MT
300 PM MDT SAT JUL 23 2016

NOTE: "FAIR" INDICATES FEW OR NO CLOUDS BELOW 12000 FEET WITH NO
SIGNIFICANT WEATHER AND/OR OBSTRUCTIONS TO VISIBILITY.

MTZ001>007-043-232200-
WEST OF THE DIVIDE

CITY           SKY/WX    TMP DP  RH WIND       PRES   REMARKS
KALISPELL      PTSUNNY   76  48  37 SE10      30.10F
MISSOULA       MOSUNNY   76  42  29 W9        30.13F
BUTTE          CLOUDY    73  33  23 SW8       30.18F
MULLAN PASS    MOSUNNY   58  44  60 VRB5      30.28S
ANACONDA         N/A     72  41  33 NW8       30.15F
DEER LODGE       N/A     70  39  32 NE9G16    30.19S
EUREKA           N/A     75  46  35 SW10      30.09F
HAMILTON         N/A     72  45  37 N8        30.14F
LIBBY            N/A     72  43  35 CALM      30.13F
PLAINS           N/A     78  43  28 NW12      30.11
RONAN            N/A     75  45  34 E6        30.17S
$$

MTZ008-052>055-232200-
SOUTHWEST MONTANA

CITY           SKY/WX    TMP DP  RH WIND       PRES   REMARKS
BOZEMAN        SUNNY     77  40  26 NW10      30.12F
DILLON         SUNNY     77  33  20 W5        30.12F
W YELLOWSTONE  MOSUNNY   73  32  21 SW13G24   30.23F
ENNIS          SUNNY     79  32  18 VRB5G14   30.18F
$$

MTZ009-010-012-014-046-048-049-054-232200-
EAST SLOPES AND CENTRAL MONTANA

CITY           SKY/WX    TMP DP  RH WIND       PRES   REMARKS
CUT BANK       MOSUNNY   78  39  24 W18G31    30.06S
GREAT FALLS    PTSUNNY   79  38  22 W9G21     30.06F
MALMSTROM AFB  MOSUNNY   76  41  28 SW8       30.06F
HELENA         MOSUNNY   81  40  23 NW9G20    30.09F
CHOTEAU          N/A     79  37  22 VRB7G15   30.09S
CONRAD           N/A     79  43  27 W12       30.09S
$$

MTZ011-013-016-021-045-047-050-051-232200-
NORTH CENTRAL MONTANA

CITY           SKY/WX    TMP DP  RH WIND       PRES   REMARKS
HAVRE          MOSUNNY   80  50  34 NW16G25   29.99R
LEWISTOWN      SUNNY     76  44  32 NW10G28   30.09S
N BAR RANCH      N/A     73  46  38 NW20G26   30.11S
CHINOOK          N/A     79  46  31 NW14G25   29.97R
$$

MTZ017>020-022>027-061-062-232200-
NORTHEAST MONTANA

CITY           SKY/WX    TMP DP  RH WIND       PRES   REMARKS
GLASGOW        SUNNY     80  50  34 NW31G38   29.89S
JORDAN           N/A     84  42  22 NW20G32   29.95R
SIDNEY         SUNNY     84  50  30 W21G30    29.84S
WOLF POINT     MOSUNNY   82  50  32 NW25G36   29.88R
PLENTYWOOD       N/A     75  54  46 W25G35    29.83R
POPLAR           N/A     79  50  36 NW18G25   29.87R
SCOBEY           N/A     77  55  46 W22       29.88
$$

MTZ028>42-056>058-232200-
SOUTHCENTRAL AND SOUTHEAST MONTANA

CITY           SKY/WX    TMP DP  RH WIND       PRES   REMARKS
BAKER          SUNNY     83  41  22 NW23G33   29.95S
BILLINGS       MOSUNNY   85  32  15 N13G22    30.02F
LIVINGSTON     SUNNY     80  29  15 N13G24    30.09F
MILES CITY     MOSUNNY   87  41  19 W23G30    29.94S
EKALAKA          N/A     82  38  20 W16       29.97
FORSYTH          N/A     82  43  24 NW12G30   29.97S
LAUREL           N/A     85  37  18 NW12      30.01F
ROUNDUP          N/A     80  43  27 W6        29.96S
$$

REGIONAL REPORTS...DAKOTAS

CITY           SKY/WX    TMP DP  RH WIND       PRES   REMARKS
WILLISTON      SUNNY     82  49  31 W23G32    29.82S
MINOT          SUNNY     85  54  34 W17G24    29.76S
DICKINSON      SUNNY     81  46  29 W21G30    29.87S
BEACH            N/A     82  43  24 W24G31    29.94S
CROSBY           N/A     75  55  50 W18G26    29.81R
WATFORD CITY     N/A    N/A N/A N/A MISG        N/A
BISMARCK       MOSUNNY   83  63  50 N18       29.81R
GRAND FORKS    HVY RAIN  70  67  90 NW6       29.74R FOG
FARGO          PTSUNNY   80  69  69 SE12      29.72S
BUFFALO SD       N/A     88  36  15 NW21G32   29.88S
RAPID CITY     SUNNY     90  43  19 N23G31    29.94R
$$

REGIONAL REPORTS...WYOMING/IDAHO/WASHINGTON

CITY           SKY/WX    TMP DP  RH WIND       PRES   REMARKS
GILLETTE       SUNNY     83  40  21 N10G18    30.05R
SHERIDAN       SUNNY     86  40  19 NW14      30.04F
BUFFALO WY     SUNNY     82  42  24 NE8G20    30.10F
CODY           SUNNY     82  41  23 NE17      30.08S
YELLOWSTONE LA   N/A     69  27  20 VRB6      30.32S
IDAHO FALLS    SUNNY     81  36  19 S18G28    30.15F
SALMON         SUNNY     79  39  24 NW5       30.07F
BOISE          SUNNY     82  30  15 NW13      30.12F
SPOKANE        MOSUNNY   73  40  30 VRB5      30.16F
$$

REGIONAL REPORTS...ALBERTA

CITY           SKY/WX    TMP DP  RH WIND       PRES   REMARKS
EDMONTON       PTSUNNY   68  50  52 W3        29.92S
CALGARY        PTSUNNY   75  48  38 SE12      29.97F
LETHBRIDGE     MOSUNNY   77  46  33 SW21G28   29.99F
MEDICINE HAT   PTSUNNY   79  50  36 W14       29.97S
WATERTON GATE    N/A     72  45  37 SW16G30     N/A
CARDSTON         N/A     73  43  33 W10G18      N/A
MILK RIVER       N/A     77  43  29 W13G18      N/A
ONEFOUR          N/A     75  45  33 NW16G26     N/A
$$

REGIONAL REPORTS...SASKATCHEWAN

CITY           SKY/WX    TMP DP  RH WIND       PRES   REMARKS
SWIFT CURRENT  MOSUNNY   68  57  68 NW17G25   29.91S
REGINA         LGT RAIN  66  61  82 W24G31    29.74S
CYPRESS HILLS    N/A     66  50  55 NW10G20     N/A
VAL MARIE        N/A     73  50  43 NW20G30     N/A
ROCKGLEN         N/A     70  54  56 NW20G31     N/A
ASSINIBOIA       N/A     70  52  52 NW10        N/A
$$




USA.gov is the U.S. government's official web portal to all federal, state and local government web resources and services.